Tracking 23752 objects as of 23-Oct-2021
HD Live streaming from Space Station
objects crossing your sky now

FREGAT DEB

Track FREGAT DEB now!
10-day predictions


NORAD ID: 46411
Int'l Code: 2011-037LQ
Perigee: 484.8 km
Apogee: 3,464.4 km
Inclination: 51.5 °
Period: 126.5 minutes
Semi major axis: 8345 km
RCS: Unknown
Launch date: July 18, 2011
Source: Commonwealth of Independent States (former USSR) (CIS)
Launch site: TYURATAM MISSILE AND SPACE COMPLEX (TTMTR)

Note: This is SATELLITE DEBRIS
aabbcc
Your satellite tracking list
Your tracking list is empty




NASA's NSSDC Master Catalog

Two Line Element Set (TLE):
1 46411U 11037LS  21291.65287130  .00000656  00000-0  24928-3 0  9990
2 46411  51.4970 171.2754 1785145 294.8801  47.7052 11.38721839 51491
Source of the keplerian elements: AFSPC